sat.trackr.live / text

‹ back to catalog

STARLINK-6148

NORAD 57117 · 2023-090S

PAYLOAD ACTIVE UNKNOWN

§ Identity

Operator
Country
US
Launch date
2023-06-23
Launch site
AFETR
Launch vehicle
Mass (kg)
RCS (m²)

Purposes: comms

External: N2YO · Heavens-Above · Gunter

§ Orbital elements

Epoch: 2026-05-24T15:40:59.857248Z

Period
94.27 min
Inclination
43.0017°
Eccentricity
0.0001304
Mean motion
15.27575971 rev/d
Perigee alt
482.2 km
Apogee alt
484.0 km
Semi-major
6,861.2 km
B*
-2.1806e-6
RAAN
212.2452°
Arg perigee
267.1329°
Mean anomaly
92.9374°
Rev number
16,194

§ Raw data

STARLINK-61481 57117U 23090S   26144.65347057 -.00000322  00000+0 -21806-5 0  99992 57117  43.0017 212.2452 0001304 267.1329  92.9374 15.27575971161948

JSON: /api/v1/satellites/57117 · /tle

For live sub-satellite position, see the globe view (requires WebGL).

§ Visibility from observer

Set your observer location to see the next 7 days of passes ≥ 10°. The values pass through the URL so the page stays shareable.

No JS? Fill the form by hand. The geolocation button needs JavaScript.